Location: Yellowknife
(62.4500°N, 114.3500°W)
Time: 18:19:09
(UTC-06:00)

N. Korean satellite - Visible Passes

Search period start: 22 October 2019 00:00
Search period end: 01 November 2019 00:00
Orbit: 455 x 508 km, 97.2° (Epoch: 22 October)

Date Brightness Start Highest point End Pass type
(mag) Time Alt. Az. Time Alt. Az. Time Alt. Az.
22 Oct 8.4 07:19:05 10° NNE 07:22:28 36° E 07:25:52 10° SSE visible
22 Oct 9.8 19:39:44 10° SW 19:42:12 18° W 19:44:41 10° NW visible
23 Oct 9.3 06:54:00 10° NE 06:56:58 23° E 06:59:57 10° SSE visible
23 Oct 9.0 19:13:36 10° SSW 19:16:39 28° W 19:19:45 10° NNW visible
24 Oct 10.0 06:29:10 10° NE 06:31:24 15° E 06:33:38 10° SE visible
24 Oct 6.7 08:01:45 10° NNE 08:05:23 84° ESE 08:09:02 10° SSW visible
24 Oct 7.9 18:47:49 10° S 18:51:10 45° W 18:54:36 10° NNW visible
25 Oct 7.6 07:36:26 10° NNE 07:40:00 51° E 07:43:36 10° S visible
25 Oct 10.1 19:58:02 10° WSW 19:59:51 13° W 20:01:40 10° NW visible
26 Oct 8.7 07:11:15 10° NNE 07:14:34 32° E 07:17:54 10° SSE visible
26 Oct 9.5 19:31:32 10° SW 19:34:14 21° W 19:36:59 10° NW visible
27 Oct 9.5 06:46:12 10° NE 06:49:02 21° E 06:51:53 10° SE visible
27 Oct 8.6 19:05:31 10° SSW 19:08:42 32° W 19:11:57 10° NNW visible
28 Oct 10.2 06:21:29 10° NE 06:23:26 14° E 06:25:23 10° ESE visible
28 Oct 6.9 07:53:49 10° NNE 07:57:29 73° ESE 08:01:11 10° S visible
28 Oct 7.5 18:39:48 10° S 18:43:15 53° W 18:46:46 10° NNW visible
29 Oct 8.0 07:28:32 10° NNE 07:32:05 44° E 07:35:39 10° S visible
29 Oct 10.0 19:49:38 10° SW 19:51:50 16° W 19:54:03 10° NW visible
30 Oct 8.9 07:03:22 10° NNE 07:06:37 28° E 07:09:51 10° SSE visible
30 Oct 9.2 19:23:19 10° SSW 19:26:15 24° W 19:29:13 10° NW visible
31 Oct 9.7 06:38:23 10° NE 06:41:03 19° E 06:43:43 10° SE visible
31 Oct 6.6 08:11:14 10° NNE 08:14:55 81° WNW 08:18:38 10° SSW visible
31 Oct 8.3 18:57:23 10° SSW 19:00:43 38° W 19:04:06 10° NNW visible
